User: anonymous   Login
Location: Unspecified
(0.0000°N, 0.0000°E)
Time: 23:49:16
(UTC+00:00)
Language:

STARLINK-35086 - Orbit

View from above orbital plane
View from above orbital plane
View from above satellite
View from above satellite

Ground track
Ground track

The orbit is defined by the following mean orbital elements,

1 65699U          26145.59497161 +.00000000 +00000-0 +46899-3 0 00007
2 65699  53.1586 348.7706 0000742  36.5432 323.5620 15.30200403    05
Epoch (UTC): 25 May 2026 14:16:45
Eccentricity: 0.0000742
inclination: 53.1586°
perigee height: 475 km
apogee height: 476 km
right ascension of ascending node: 348.7706°
argument of perigee: 36.5432°
revolutions per day: 15.30200403
mean anomaly at epoch: 323.5620°

The dashed part of the orbit path shows where the satellite is in the earth's shadow,  

DLR